User: anonymous   Login
Location: La Brionne
(46.1728°N, 1.7849°E)
Time: 11:58:20
(UTC+00:00)
Language:

Cosmos 389 Rocket - Orbit

View from above orbital plane
View from above orbital plane
View from above satellite
View from above satellite

Ground track
Ground track

The orbit data is extracted from the following two-line orbital elements,

1 04814U 70113B   21270.83828401  .00003335  00000-0  90479-4 0  9992
2 04814  81.1408 314.8140 0024486 100.0206 260.3799 15.36985258774887
Epoch (UTC): 27 September 2021 20:07:07
Eccentricity: 0.0024486
inclination: 81.1408°
perigee height: 438 km
apogee height: 472 km
right ascension of ascending node: 314.8140°
argument of perigee: 100.0206°
revolutions per day: 15.36985258
mean anomaly at epoch: 260.3799°
orbit number at epoch: 77488

The dashed part of the orbit path shows where the satellite is in the earth's shadow,  

DLR